Location: Harbor Island
(32.3990°N, 80.4435°W)
Time: 05:22:29
(UTC-05:00)

Daily predictions for brighter satellites

Satellite Brightness Start Highest point End
(mag) Time Altitude Azimuth Time Altitude Azimuth Time Altitude Azimuth
ATLAS 5 CENTAUR R/B 4.0 04:22:37 19° NNE 04:22:37 19° NNE 04:24:03 10° NNE
Cosmos 1943 Rocket 3.2 04:28:16 38° NNE 04:28:16 38° NNE 04:31:37 10° NNE
CZ-4C R/B 2.8 04:33:26 46° SE 04:33:56 48° ESE 04:39:16 10° NE
Okean-O 3.7 04:32:08 10° NNE 04:35:44 42° ENE 04:35:44 42° ENE
Meteor 1-26 Rocket 4.3 04:51:01 10° S 04:56:44 78° E 05:02:22 10° N
Thor Agena Rocket 4.1 04:56:29 10° SSE 05:01:37 58° ENE 05:06:41 10° N
Cosmos 1703 Rocket 3.4 05:04:08 78° N 05:04:08 78° N 05:08:13 10° N
Cosmos 972 4.5 05:07:47 54° NW 05:07:47 54° NW 05:12:13 10° N
Lacrosse 5 3.1 05:10:00 28° NNW 05:10:00 28° NNW 05:13:31 10° NNE
USA 234 3.8 05:03:18 10° NNE 05:09:10 37° NW 05:10:14 35° WNW
Cosmos 1553 Rocket 4.3 05:03:50 10° S 05:09:53 65° E 05:16:04 10° NNE
ADEOS II 3.8 05:05:32 10° N 05:07:16 19° NNW 05:07:16 19° NNW
Cosmos 1452 Rocket 3.4 05:10:36 41° SW 05:12:24 70° WNW 05:17:41 10° NNE
Delta 2 Rocket 3.8 05:12:52 53° SW 05:13:55 72° SSE 05:19:13 10° ENE
Meteor 1-31 Rocket 4.2 05:13:05 10° N 05:14:57 26° N 05:14:57 26° N
SJ-6F 4.3 05:16:13 10° N 05:20:22 80° WNW 05:23:58 13° SSW
Cosmos 2369 Rocket 4.3 05:25:33 11° NNW 05:25:33 11° NNW 05:26:06 10° NNW
ATLAS 3B R/B 3.5 05:21:52 10° S 05:29:17 58° ESE 05:36:32 10° NE
COSMO-SKYMED 1 3.3 05:25:41 10° SSE 05:29:54 54° ENE 05:34:08 10° N
Cosmos 2221 Rocket 3.7 05:27:21 10° SSW 05:31:48 53° W 05:36:16 10° N
Cosmos 1656 Rocket 3.8 05:28:47 20° SW 05:32:40 54° WNW 05:38:14 10° N
Cosmos 407 Rocket 3.7 05:29:04 10° NNW 05:34:12 50° WSW 05:39:19 10° S
Cosmos 676 Rocket 3.9 05:32:42 10° NNW 05:38:00 70° WSW 05:43:17 10° S
USA 81 4.4 05:33:07 10° S 05:38:21 68° E 05:43:36 10° N
GEOS 3 Rocket 4.4 05:43:07 10° S 05:47:31 30° WSW 05:49:56 20° WNW
Cosmos 1833 4.4 05:44:24 10° NNW 05:49:44 47° WSW 05:55:04 10° S
Cosmos 1140 Rocket 3.4 05:50:01 10° NNW 05:55:16 82° WSW 06:00:29 10° SSE
Okean 1-7 3.7 05:53:11 10° SW 05:56:58 30° W 06:00:44 10° NNW
Cosmos 1932 4.4 05:53:44 10° SSW 06:00:02 77° WNW 06:06:31 10° NNE
Meteor 1-27 Rocket 4.4 05:57:53 10° S 06:03:30 62° E 06:09:16 10° NNE
Cosmos 614 Rocket 3.9 05:59:08 10° NNW 06:04:16 90° SW 06:09:24 10° SSE
Cosmos 1745 Rocket 3.9 05:58:24 10° NNW 06:04:29 69° W 06:10:33 10° S
Radarsat Rocket 4.4 05:59:40 10° N 06:06:31 51° WNW 06:12:35 10° SW
Tiangong 1 3.2 06:07:42 11° NW 06:09:09 14° NNW 06:10:47 10° NNE
Cosmos 1943 Rocket 4.0 06:09:50 10° WNW 06:10:31 10° NW 06:11:32 10° NW
Cosmos 1386 Rocket 4.4 06:05:10 10° N 06:11:14 81° W 06:17:23 10° S
Meteor 1-28 Rocket 3.2 06:08:37 10° S 06:12:15 57° W 06:15:56 10° NNW
Okean-O 4.4 06:10:27 10° NW 06:12:27 13° WNW 06:13:21 12° W
CZ-2C R/B 3.4 06:08:08 10° NNE 06:12:59 54° E 06:17:57 10° S
Cosmos 1633 3.9 06:10:49 10° N 06:14:18 44° E 06:17:45 10° SSE
Meteor 1-20 Rocket 4.3 06:11:32 10° NNW 06:17:05 55° W 06:22:29 10° S
SKYMED 2 4.1 06:13:59 10° SSW 06:17:59 36° W 06:21:59 10° NNW
PAYLOAD A 3.8 06:13:38 10° N 06:18:24 85° WNW 06:23:17 10° SSW
Cosmos 1782 3.5 06:14:57 10° SW 06:18:29 32° W 06:22:04 10° NNW
BREEZE-M DEB (TANK) 4.2 06:15:32 10° SSW 06:18:41 50° ESE 06:29:08 10° NE
Cosmos 1850 Rocket 4.0 06:14:52 10° NNW 06:20:12 77° WSW 06:25:28 10° S
CZ-4C R/B 3.5 06:18:47 10° W 06:22:43 21° NW 06:27:00 10° N
Cosmos 1300 Rocket 4.5 06:18:35 10° N 06:22:56 54° E 06:27:14 10° SSE
IDEFIX/ARIANE 42P 2.8 06:21:36 10° NNE 06:26:50 79° ESE 06:32:01 10° S
Ariane Rocket 3.3 06:26:40 10° N 06:31:29 44° WNW 06:36:16 10° SW
CSL-04 Rocket 3.8 06:27:13 10° N 06:32:28 54° WNW 06:37:45 10° SSW
Cosmos 1674 Rocket 3.7 06:29:41 10° SSW 06:33:57 54° W 06:38:18 10° N
SeaSat 1 4.0 06:29:27 10° NE 06:34:07 41° ESE 06:38:44 10° S
Okean 2 Rocket 4.4 06:31:47 10° NW 06:34:55 19° W 06:38:02 10° SW
Cosmos 1606 3.7 06:31:52 10° SW 06:35:06 25° W 06:38:23 10° NNW
Cosmos 1602 3.9 06:31:22 10° N 06:35:20 86° E 06:39:17 10° S
Cosmos 1378 Rocket 3.9 06:32:00 10° S 06:36:22 75° E 06:40:44 10° N
Cosmos 2369 3.7 06:32:09 10° SSW 06:37:47 85° WNW 06:43:28 10° NNE
